Hourly Weather Kitelya

Today, 29 July, Thursday

Time Temperature Precipitation Wind Pressure Humidity
00:00 +19°C° 0 mm 1 mps 752 mmHg 94%
01:00 +17°C° 0 mm 2 mps 752 mmHg 94%
02:00 +17°C° 0 mm 2 mps 751 mmHg 95%
03:00 +17°C° 0.7 mm 2 mps 751 mmHg 96%
04:00 +17°C° 0.7 mm 2 mps 750 mmHg 96%
05:00 +18°C° 0.7 mm 2 mps 750 mmHg 97%
06:00 +19°C° 0.3 mm 1 mps 750 mmHg 95%
07:00 +20°C° 0.3 mm 1 mps 749 mmHg 92%
08:00 +20°C° 0.3 mm 1 mps 749 mmHg 90%
09:00 +20°C° 0.4 mm 2 mps 749 mmHg 85%
10:00 +21°C° 0.4 mm 3 mps 749 mmHg 80%
11:00 +21°C° 0.4 mm 3 mps 748 mmHg 75%
12:00 +21°C° 0.6 mm 3 mps 748 mmHg 74%
13:00 +21°C° 0.6 mm 3 mps 748 mmHg 74%
14:00 +21°C° 0.6 mm 3 mps 747 mmHg 74%
15:00 +21°C° 0.6 mm 2 mps 747 mmHg 75%
16:00 +21°C° 0.6 mm 2 mps 747 mmHg 77%
17:00 +21°C° 0.6 mm 2 mps 746 mmHg 79%
18:00 +20°C° 0.2 mm 3 mps 746 mmHg 81%
19:00 +19°C° 0.2 mm 3 mps 746 mmHg 83%
20:00 +19°C° 0.2 mm 3 mps 746 mmHg 85%
21:00 +18°C° 0.1 mm 3 mps 746 mmHg 85%
22:00 +18°C° 0.1 mm 3 mps 746 mmHg 86%
23:00 +18°C° 0.1 mm 3 mps 746 mmHg 86%

Tomorrow, 30 July, Friday

Time Temperature Precipitation Wind Pressure Humidity
00:00 +17°C° 0.1 mm 3 mps 746 mmHg 88%
01:00 +16°C° 0.1 mm 3 mps 746 mmHg 90%
02:00 +16°C° 0.1 mm 3 mps 746 mmHg 92%
03:00 +16°C° 0 mm 3 mps 746 mmHg 92%
04:00 +15°C° 0 mm 4 mps 746 mmHg 91%
05:00 +15°C° 0 mm 4 mps 746 mmHg 90%
06:00 +18°C° 0 mm 4 mps 746 mmHg 84%
07:00 +19°C° 0 mm 5 mps 746 mmHg 78%
08:00 +20°C° 0 mm 5 mps 746 mmHg 71%
09:00 +21°C° 0 mm 5 mps 746 mmHg 65%
10:00 +22°C° 0 mm 6 mps 746 mmHg 58%
11:00 +22°C° 0 mm 6 mps 746 mmHg 51%
12:00 +22°C° 0 mm 6 mps 746 mmHg 50%
13:00 +23°C° 0 mm 6 mps 746 mmHg 48%
14:00 +23°C° 0 mm 6 mps 746 mmHg 46%
15:00 +22°C° 0.1 mm 6 mps 746 mmHg 52%
16:00 +21°C° 0.1 mm 6 mps 746 mmHg 59%
17:00 +20°C° 0.1 mm 6 mps 746 mmHg 65%
18:00 +19°C° 0 mm 5 mps 745 mmHg 70%
19:00 +17°C° 0 mm 5 mps 745 mmHg 74%
20:00 +16°C° 0 mm 5 mps 745 mmHg 79%
21:00 +15°C° 0.1 mm 4 mps 745 mmHg 83%
22:00 +15°C° 0.1 mm 4 mps 745 mmHg 88%
23:00 +14°C° 0.1 mm 3 mps 745 mmHg 92%

Day after tomorrow, 31 July, Saturday

Time Temperature Precipitation Wind Pressure Humidity
00:00 +14°C° 0.1 mm 3 mps 745 mmHg 93%
01:00 +13°C° 0.1 mm 3 mps 744 mmHg 94%
02:00 +13°C° 0.1 mm 3 mps 744 mmHg 95%
03:00 +13°C° 0.2 mm 3 mps 744 mmHg 94%
04:00 +14°C° 0.2 mm 3 mps 743 mmHg 93%
05:00 +14°C° 0.2 mm 3 mps 743 mmHg 92%
06:00 +14°C° 1.5 mm 3 mps 743 mmHg 92%
07:00 +14°C° 1.5 mm 4 mps 743 mmHg 93%
08:00 +14°C° 1.5 mm 4 mps 743 mmHg 93%
09:00 +15°C° 0.5 mm 4 mps 743 mmHg 92%
10:00 +15°C° 0.5 mm 4 mps 743 mmHg 90%
11:00 +17°C° 0.5 mm 3 mps 744 mmHg 88%
12:00 +18°C° 0.3 mm 3 mps 744 mmHg 81%
13:00 +19°C° 0.3 mm 3 mps 744 mmHg 73%
14:00 +21°C° 0.3 mm 3 mps 745 mmHg 66%
15:00 +21°C° 0 mm 3 mps 745 mmHg 62%
16:00 +22°C° 0 mm 3 mps 745 mmHg 58%
17:00 +22°C° 0 mm 3 mps 745 mmHg 54%
18:00 +21°C° 0 mm 3 mps 746 mmHg 61%
19:00 +19°C° 0 mm 3 mps 746 mmHg 68%
20:00 +18°C° 0 mm 3 mps 747 mmHg 76%
21:00 +17°C° 0 mm 3 mps 747 mmHg 80%
22:00 +16°C° 0 mm 3 mps 747 mmHg 84%
23:00 +16°C° 0 mm 2 mps 748 mmHg 88%

1 August, Sunday

Time Temperature Precipitation Wind Pressure Humidity
00:00 +15°C° 0 mm 2 mps 748 mmHg 90%
01:00 +15°C° 0 mm 2 mps 748 mmHg 92%
02:00 +14°C° 0 mm 2 mps 748 mmHg 94%
03:00 +15°C° 0 mm 2 mps 748 mmHg 93%
04:00 +15°C° 0 mm 2 mps 748 mmHg 92%
05:00 +15°C° 0 mm 2 mps 749 mmHg 91%
06:00 +17°C° 0 mm 2 mps 748 mmHg 86%
07:00 +18°C° 0 mm 3 mps 748 mmHg 81%
08:00 +20°C° 0 mm 3 mps 748 mmHg 76%
09:00 +20°C° 0.1 mm 4 mps 748 mmHg 73%
10:00 +21°C° 0.1 mm 4 mps 748 mmHg 70%
11:00 +21°C° 0.1 mm 5 mps 748 mmHg 68%
12:00 +20°C° 0.5 mm 4 mps 748 mmHg 77%
13:00 +18°C° 0.5 mm 4 mps 748 mmHg 86%
14:00 +17°C° 0.5 mm 4 mps 747 mmHg 95%
15:00 +18°C° 0.3 mm 4 mps 747 mmHg 92%
16:00 +18°C° 0.3 mm 4 mps 747 mmHg 90%
17:00 +17°C° 0.3 mm 5 mps 747 mmHg 87%
18:00 +18°C° 0.4 mm 4 mps 746 mmHg 90%
19:00 +17°C° 0.4 mm 4 mps 746 mmHg 93%
20:00 +17°C° 0.4 mm 4 mps 746 mmHg 95%
21:00 +15°C° 0 mm 4 mps 746 mmHg 95%
22:00 +15°C° 0 mm 4 mps 746 mmHg 95%
23:00 +15°C° 0 mm 4 mps 746 mmHg 94%

2 August, Monday

Time Temperature Precipitation Wind Pressure Humidity
00:00 +15°C° 0 mm 5 mps 746 mmHg 95%
01:00 +15°C° 0 mm 5 mps 747 mmHg 95%
02:00 +14°C° 0 mm 5 mps 747 mmHg 96%
03:00 +14°C° 0 mm 5 mps 747 mmHg 95%
04:00 +14°C° 0 mm 5 mps 747 mmHg 94%
05:00 +14°C° 0 mm 5 mps 747 mmHg 93%
06:00 +15°C° 0 mm 5 mps 747 mmHg 87%
07:00 +15°C° 0 mm 6 mps 747 mmHg 81%
08:00 +16°C° 0 mm 6 mps 748 mmHg 74%
09:00 +16°C° 0 mm 6 mps 748 mmHg 70%
10:00 +17°C° 0 mm 5 mps 748 mmHg 66%
11:00 +17°C° 0 mm 5 mps 749 mmHg 62%
12:00 +17°C° 0.1 mm 5 mps 749 mmHg 60%
13:00 +19°C° 0.1 mm 5 mps 749 mmHg 58%
14:00 +19°C° 0.1 mm 4 mps 750 mmHg 56%
15:00 +19°C° 0 mm 4 mps 750 mmHg 53%
16:00 +19°C° 0 mm 3 mps 750 mmHg 51%
17:00 +19°C° 0 mm 2 mps 750 mmHg 48%
18:00 +17°C° 0 mm 2 mps 750 mmHg 54%
19:00 +16°C° 0 mm 2 mps 750 mmHg 60%
20:00 +15°C° 0 mm 1 mps 750 mmHg 66%
21:00 +13°C° 0 mm 2 mps 751 mmHg 70%
22:00 +11°C° 0 mm 3 mps 751 mmHg 75%
23:00 +10°C° 0 mm 3 mps 752 mmHg 79%

3 August, Tuesday

Time Temperature Precipitation Wind Pressure Humidity
00:00 +10°C° 0 mm 3 mps 752 mmHg 79%
01:00 +9°C° 0 mm 3 mps 752 mmHg 79%
02:00 +9°C° 0 mm 3 mps 752 mmHg 79%
03:00 +9°C° 0 mm 3 mps 753 mmHg 77%
04:00 +9°C° 0 mm 3 mps 753 mmHg 75%
05:00 +9°C° 0 mm 2 mps 753 mmHg 72%
06:00 +12°C° 0 mm 2 mps 753 mmHg 66%
07:00 +13°C° 0 mm 2 mps 753 mmHg 59%
08:00 +15°C° 0 mm 2 mps 754 mmHg 52%
09:00 +16°C° 0 mm 2 mps 754 mmHg 48%
10:00 +17°C° 0 mm 2 mps 754 mmHg 43%
11:00 +18°C° 0 mm 2 mps 754 mmHg 39%
12:00 +19°C° 0 mm 2 mps 754 mmHg 37%
13:00 +19°C° 0 mm 3 mps 754 mmHg 36%
14:00 +20°C° 0 mm 3 mps 754 mmHg 35%
15:00 +20°C° 0 mm 3 mps 754 mmHg 35%
16:00 +20°C° 0 mm 3 mps 755 mmHg 36%
17:00 +19°C° 0 mm 4 mps 755 mmHg 37%
18:00 +18°C° 0 mm 3 mps 755 mmHg 43%
19:00 +17°C° 0 mm 3 mps 755 mmHg 50%
20:00 +14°C° 0 mm 3 mps 756 mmHg 57%
21:00 +14°C° 0 mm 2 mps 756 mmHg 60%
22:00 +13°C° 0 mm 2 mps 757 mmHg 64%
23:00 +12°C° 0 mm 2 mps 757 mmHg 67%
Show more